DGRLG EDRY-EDFM

Flight info

Callsign DGRLG
Flight time 0h 21m
Altitude 17000
Route VFR
Aircraft DA42/L-BDGLORVWY/S

Departure

Time 2026-05-08 18:54
Airport Speyer Airfield (EDRY)

Arrival

Time 2026-05-08 19:15
Airport Mannheim-City Airport (EDFM)
Time Latitude Longitude Altitude Speed Heading
2026-05-08 18:54 49.47268 8.51576 308 ft 80 kts 92°
2026-05-08 18:54 49.47219 8.52567 434 ft 100 kts 87°
2026-05-08 18:54 49.47062 8.53559 857 ft 104 kts 130°
2026-05-08 18:54 49.46332 8.53890 1139 ft 118 kts 172°
2026-05-08 18:55 49.45309 8.52433 1447 ft 147 kts 289°
2026-05-08 18:55 49.45637 8.50921 1610 ft 145 kts 291°
2026-05-08 18:55 49.45969 8.49371 1533 ft 162 kts 288°
2026-05-08 18:56 49.46264 8.47647 1376 ft 175 kts 286°
2026-05-08 18:56 49.46661 8.45822 1069 ft 171 kts 312°
2026-05-08 18:56 49.47357 8.45886 1055 ft 95 kts 74°
2026-05-08 18:56 49.47421 8.46796 838 ft 88 kts 86°
2026-05-08 18:57 49.47384 8.47732 757 ft 88 kts 89°
2026-05-08 18:57 49.47356 8.48656 660 ft 87 kts 87°
2026-05-08 18:57 49.47324 8.49583 511 ft 87 kts 87°
2026-05-08 18:57 49.47303 8.50486 369 ft 82 kts 89°
2026-05-08 18:58 49.47278 8.51248 308 ft 57 kts 93°
2026-05-08 18:58 49.47247 8.52104 328 ft 99 kts 89°
2026-05-08 18:58 49.47204 8.53105 757 ft 94 kts 96°
2026-05-08 18:58 49.46658 8.53729 960 ft 127 kts 191°
2026-05-08 18:59 49.45781 8.53104 997 ft 152 kts 230°
2026-05-08 18:59 49.45704 8.51635 1168 ft 142 kts 297°
2026-05-08 18:59 49.46034 8.50102 1052 ft 156 kts 286°
2026-05-08 18:59 49.46282 8.48478 977 ft 158 kts 290°
2026-05-08 19:00 49.46924 8.47567 933 ft 98 kts
2026-05-08 19:00 49.47321 8.48057 773 ft 79 kts 70°
2026-05-08 19:00 49.47431 8.48910 660 ft 88 kts 84°
2026-05-08 19:00 49.47414 8.49846 571 ft 85 kts 86°
2026-05-08 19:01 49.47400 8.50743 401 ft 87 kts 85°
2026-05-08 19:01 49.47351 8.51559 306 ft 57 kts 90°
2026-05-08 19:01 49.47316 8.52295 402 ft 79 kts 90°
2026-05-08 19:01 49.47226 8.53224 614 ft 101 kts 122°
2026-05-08 19:02 49.46537 8.53528 833 ft 120 kts 199°
2026-05-08 19:02 49.45700 8.53026 943 ft 138 kts 199°
2026-05-08 19:02 49.45194 8.51912 1145 ft 136 kts 273°
2026-05-08 19:02 49.45305 8.50408 1187 ft 147 kts 283°
2026-05-08 19:03 49.45492 8.48823 1247 ft 151 kts 282°
2026-05-08 19:03 49.45729 8.47219 1233 ft 155 kts 302°
2026-05-08 19:03 49.46581 8.46636 1305 ft 133 kts 17°
2026-05-08 19:03 49.47248 8.47383 1165 ft 115 kts 51°
2026-05-08 19:04 49.47488 8.48413 999 ft 87 kts 86°
2026-05-08 19:04 49.47423 8.49293 727 ft 78 kts 95°
2026-05-08 19:04 49.47397 8.50110 584 ft 77 kts 92°
2026-05-08 19:04 49.47369 8.50914 367 ft 73 kts 90°
2026-05-08 19:05 49.47342 8.51554 307 ft 62 kts 94°
2026-05-08 19:05 49.47318 8.52373 451 ft 86 kts 95°
2026-05-08 19:05 49.46752 8.52651 721 ft 103 kts 182°
2026-05-08 19:05 49.46050 8.52540 984 ft 99 kts 184°
2026-05-08 19:06 49.45416 8.52077 1160 ft 113 kts 231°
2026-05-08 19:06 49.45279 8.50838 1186 ft 134 kts 289°
2026-05-08 19:06 49.45687 8.49425 1178 ft 155 kts 292°
2026-05-08 19:06 49.45904 8.47758 1286 ft 158 kts 280°
2026-05-08 19:07 49.46299 8.46307 1259 ft 147 kts 343°
2026-05-08 19:07 49.47106 8.46749 1138 ft 123 kts 57°
2026-05-08 19:07 49.47345 8.47829 1032 ft 96 kts 79°
2026-05-08 19:07 49.47355 8.48839 677 ft 95 kts 88°
2026-05-08 19:08 49.47315 8.49798 509 ft 86 kts 89°
2026-05-08 19:08 49.47272 8.50720 333 ft 83 kts 78°
2026-05-08 19:08 49.47276 8.51492 310 ft 80 kts 88°
2026-05-08 19:08 49.47190 8.52492 493 ft 97 kts 93°
2026-05-08 19:09 49.47187 8.53466 874 ft 99 kts 101°
2026-05-08 19:09 49.46624 8.54059 1019 ft 124 kts 188°
2026-05-08 19:09 49.45830 8.53288 1036 ft 145 kts 216°
2026-05-08 19:09 49.44961 8.52368 1071 ft 157 kts 209°
2026-05-08 19:10 49.43952 8.51634 1100 ft 163 kts 201°
2026-05-08 19:10 49.42863 8.51078 1105 ft 167 kts 194°
2026-05-08 19:10 49.41734 8.50712 1213 ft 167 kts 187°
2026-05-08 19:10 49.40579 8.50483 1248 ft 168 kts 185°
2026-05-08 19:11 49.39415 8.50288 1240 ft 168 kts 183°
2026-05-08 19:11 49.38364 8.50139 1498 ft 119 kts 181°
2026-05-08 19:11 49.37663 8.49986 1476 ft 87 kts 183°
2026-05-08 19:11 49.37081 8.49854 1430 ft 85 kts 181°
2026-05-08 19:12 49.36492 8.49800 1407 ft 86 kts 176°
2026-05-08 19:12 49.35875 8.49706 1353 ft 94 kts 180°
2026-05-08 19:12 49.35216 8.49612 1271 ft 96 kts 182°
2026-05-08 19:12 49.34550 8.49463 1228 ft 99 kts 185°
2026-05-08 19:13 49.33835 8.49282 1245 ft 116 kts 186°
2026-05-08 19:13 49.32943 8.49062 1259 ft 142 kts 187°
2026-05-08 19:13 49.31905 8.48733 1177 ft 162 kts 193°
2026-05-08 19:13 49.30750 8.48422 1007 ft 174 kts 177°
2026-05-08 19:14 49.29541 8.48510 982 ft 174 kts 175°
2026-05-08 19:14 49.28347 8.48445 959 ft 172 kts 208°
2026-05-08 19:14 49.27863 8.46930 1012 ft 161 kts 274°
2026-05-08 19:14 49.28336 8.45986 1277 ft 84 kts 352°
2026-05-08 19:15 49.28911 8.45802 752 ft 84 kts 349°
2026-05-08 19:15 49.29448 8.45597 420 ft 76 kts 347°
2026-05-08 19:15 49.29936 8.45394 324 ft 58 kts 346°
2026-05-08 19:15 49.30240 8.45272 321 ft 36 kts 344°
2026-05-08 19:16 49.30439 8.45195 320 ft 18 kts 352°
2026-05-08 19:16 49.30477 8.45283 322 ft 8 kts 54°
2026-05-08 19:16 49.30523 8.45283 322 ft 7 kts 346°
2026-05-08 19:16 49.30569 8.45264 322 ft 7 kts 344°
2026-05-08 19:17 49.30626 8.45240 323 ft 12 kts 346°
2026-05-08 19:17 49.30710 8.45203 323 ft 13 kts 341°
2026-05-08 19:17 49.30796 8.45157 323 ft 14 kts 340°
2026-05-08 19:17 49.30889 8.45111 323 ft 14 kts 344°
2026-05-08 19:18 49.30917 8.45064 323 ft 1 kts 281°
2026-05-08 19:18 49.30916 8.44975 323 ft 15 kts 258°
2026-05-08 19:18 49.30857 8.44896 323 ft 14 kts 166°
2026-05-08 19:18 49.30760 8.44934 323 ft 15 kts 165°
2026-05-08 19:19 49.30729 8.44934 323 ft 1 kts 258°
2026-05-08 19:19 49.30725 8.44919 323 ft 2 kts 184°
2026-05-08 19:19 49.30719 8.44926 323 ft 1 kts 78°
2026-05-08 19:19 49.30719 8.44927 323 ft 0 kts 77°